sat.trackr.live / text

‹ back to catalog

STARLINK-4432

NORAD 53487 · 2022-099Y

PAYLOAD ACTIVE UNKNOWN

§ Identity

Operator
Country
US
Launch date
2022-08-12
Launch site
AFWTR
Launch vehicle
Mass (kg)
RCS (m²)

Purposes: comms

External: N2YO · Heavens-Above · Gunter

§ Orbital elements

Epoch: 2026-05-24T21:12:00.701280Z

Period
95.64 min
Inclination
97.4481°
Eccentricity
0.0001621
Mean motion
15.05658493 rev/d
Perigee alt
548.4 km
Apogee alt
550.6 km
Semi-major
6,927.6 km
B*
9.1808e-5
RAAN
265.9494°
Arg perigee
154.7788°
Mean anomaly
205.3519°
Rev number
20,751

§ Raw data

STARLINK-44321 53487U 22099Y   26144.88334145  .00001267  00000+0  91808-4 0  99972 53487  97.4481 265.9494 0001621 154.7788 205.3519 15.05658493207517

JSON: /api/v1/satellites/53487 · /tle

For live sub-satellite position, see the globe view (requires WebGL).

§ Visibility from observer

Set your observer location to see the next 7 days of passes ≥ 10°. The values pass through the URL so the page stays shareable.

No JS? Fill the form by hand. The geolocation button needs JavaScript.